﻿測定場所 (Monitoring sites),日付 (Measurement date),時間 (Measurement time),線量率 最大値 (max) μGy/h,線量率 最小値 (min) μGy/h,線量率 平均値 (average) μGy/h,
江戸川 (Edogawa),2021-11-14,23:01～24:00,0.0447,0.0373,0.0416,
江戸川 (Edogawa),2021-11-14,22:01～23:00,0.0441,0.0395,0.0417,
江戸川 (Edogawa),2021-11-14,21:01～22:00,0.0452,0.0384,0.0414,
江戸川 (Edogawa),2021-11-14,20:01～21:00,0.0453,0.0395,0.0415,
江戸川 (Edogawa),2021-11-14,19:01～20:00,0.0458,0.0383,0.0420,
江戸川 (Edogawa),2021-11-14,18:01～19:00,0.0444,0.0388,0.0417,
江戸川 (Edogawa),2021-11-14,17:01～18:00,0.0452,0.0379,0.0413,
江戸川 (Edogawa),2021-11-14,16:01～17:00,0.0442,0.0382,0.0409,
江戸川 (Edogawa),2021-11-14,15:01～16:00,0.0449,0.0375,0.0406,
江戸川 (Edogawa),2021-11-14,14:01～15:00,0.0435,0.0373,0.0408,
江戸川 (Edogawa),2021-11-14,13:01～14:00,0.0442,0.0384,0.0412,
江戸川 (Edogawa),2021-11-14,12:01～13:00,0.0442,0.0383,0.0414,
江戸川 (Edogawa),2021-11-14,11:01～12:00,0.0449,0.0383,0.0421,
江戸川 (Edogawa),2021-11-14,10:01～11:00,0.0444,0.0397,0.0422,
江戸川 (Edogawa),2021-11-14,09:01～10:00,0.0448,0.0384,0.0415,
江戸川 (Edogawa),2021-11-14,08:01～09:00,0.0447,0.0390,0.0419,
江戸川 (Edogawa),2021-11-14,07:01～08:00,0.0444,0.0387,0.0420,
江戸川 (Edogawa),2021-11-14,06:01～07:00,0.0449,0.0390,0.0420,
江戸川 (Edogawa),2021-11-14,05:01～06:00,0.0457,0.0398,0.0426,
江戸川 (Edogawa),2021-11-14,04:01～05:00,0.0458,0.0394,0.0425,
江戸川 (Edogawa),2021-11-14,03:01～04:00,0.0446,0.0385,0.0415,
江戸川 (Edogawa),2021-11-14,02:01～03:00,0.0454,0.0381,0.0416,
江戸川 (Edogawa),2021-11-14,01:01～02:00,0.0444,0.0386,0.0414,
江戸川 (Edogawa),2021-11-14,00:01～01:00,0.0439,0.0388,0.0409,
江戸川 (Edogawa),2021-11-13,23:01～24:00,0.0448,0.0391,0.0414,
江戸川 (Edogawa),2021-11-13,22:01～23:00,0.0435,0.0368,0.0409,
江戸川 (Edogawa),2021-11-13,21:01～22:00,0.0437,0.0381,0.0411,
江戸川 (Edogawa),2021-11-13,20:01～21:00,0.0454,0.0380,0.0413,
江戸川 (Edogawa),2021-11-13,19:01～20:00,0.0441,0.0380,0.0408,
江戸川 (Edogawa),2021-11-13,18:01～19:00,0.0443,0.0371,0.0412,
江戸川 (Edogawa),2021-11-13,17:01～18:00,0.0438,0.0367,0.0409,
江戸川 (Edogawa),2021-11-13,16:01～17:00,0.0445,0.0376,0.0413,
江戸川 (Edogawa),2021-11-13,15:01～16:00,0.0456,0.0390,0.0416,
江戸川 (Edogawa),2021-11-13,14:01～15:00,0.0444,0.0389,0.0414,
江戸川 (Edogawa),2021-11-13,13:01～14:00,0.0446,0.0393,0.0420,
江戸川 (Edogawa),2021-11-13,12:01～13:00,0.0442,0.0371,0.0417,
江戸川 (Edogawa),2021-11-13,11:01～12:00,0.0456,0.0389,0.0424,
江戸川 (Edogawa),2021-11-13,10:01～11:00,0.0456,0.0380,0.0418,
江戸川 (Edogawa),2021-11-13,09:01～10:00,0.0446,0.0394,0.0421,
江戸川 (Edogawa),2021-11-13,08:01～09:00,0.0455,0.0385,0.0419,
江戸川 (Edogawa),2021-11-13,07:01～08:00,0.0445,0.0389,0.0416,
江戸川 (Edogawa),2021-11-13,06:01～07:00,0.0453,0.0377,0.0414,
江戸川 (Edogawa),2021-11-13,05:01～06:00,0.0451,0.0382,0.0413,
江戸川 (Edogawa),2021-11-13,04:01～05:00,0.0447,0.0374,0.0413,
江戸川 (Edogawa),2021-11-13,03:01～04:00,0.0445,0.0386,0.0412,
江戸川 (Edogawa),2021-11-13,02:01～03:00,0.0448,0.0378,0.0410,
江戸川 (Edogawa),2021-11-13,01:01～02:00,0.0440,0.0380,0.0412,
江戸川 (Edogawa),2021-11-13,00:01～01:00,0.0439,0.0383,0.0413,
江戸川 (Edogawa),2021-11-12,23:01～24:00,0.0435,0.0386,0.0413,
江戸川 (Edogawa),2021-11-12,22:01～23:00,0.0442,0.0373,0.0412,
江戸川 (Edogawa),2021-11-12,21:01～22:00,0.0441,0.0376,0.0412,
江戸川 (Edogawa),2021-11-12,20:01～21:00,0.0440,0.0382,0.0414,
江戸川 (Edogawa),2021-11-12,19:01～20:00,0.0440,0.0378,0.0411,
江戸川 (Edogawa),2021-11-12,18:01～19:00,0.0441,0.0391,0.0412,
江戸川 (Edogawa),2021-11-12,17:01～18:00,0.0445,0.0383,0.0410,
江戸川 (Edogawa),2021-11-12,16:01～17:00,0.0434,0.0366,0.0411,
江戸川 (Edogawa),2021-11-12,15:01～16:00,0.0446,0.0384,0.0411,
江戸川 (Edogawa),2021-11-12,14:01～15:00,0.0444,0.0377,0.0411,
江戸川 (Edogawa),2021-11-12,13:01～14:00,0.0450,0.0390,0.0412,
江戸川 (Edogawa),2021-11-12,12:01～13:00,0.0446,0.0380,0.0412,
江戸川 (Edogawa),2021-11-12,11:01～12:00,0.0447,0.0380,0.0419,
江戸川 (Edogawa),2021-11-12,10:01～11:00,0.0444,0.0392,0.0421,
江戸川 (Edogawa),2021-11-12,09:01～10:00,0.0465,0.0390,0.0424,
江戸川 (Edogawa),2021-11-12,08:01～09:00,0.0448,0.0395,0.0421,
江戸川 (Edogawa),2021-11-12,07:01～08:00,0.0452,0.0395,0.0419,
江戸川 (Edogawa),2021-11-12,06:01～07:00,0.0445,0.0387,0.0414,
江戸川 (Edogawa),2021-11-12,05:01～06:00,0.0441,0.0388,0.0414,
江戸川 (Edogawa),2021-11-12,04:01～05:00,0.0442,0.0386,0.0412,
江戸川 (Edogawa),2021-11-12,03:01～04:00,0.0450,0.0374,0.0410,
江戸川 (Edogawa),2021-11-12,02:01～03:00,0.0432,0.0387,0.0413,
江戸川 (Edogawa),2021-11-12,01:01～02:00,0.0435,0.0386,0.0409,
江戸川 (Edogawa),2021-11-12,00:01～01:00,0.0437,0.0380,0.0413,
江戸川 (Edogawa),2021-11-11,23:01～24:00,0.0444,0.0370,0.0411,
江戸川 (Edogawa),2021-11-11,22:01～23:00,0.0436,0.0371,0.0408,
江戸川 (Edogawa),2021-11-11,21:01～22:00,0.0449,0.0380,0.0412,
江戸川 (Edogawa),2021-11-11,20:01～21:00,0.0445,0.0391,0.0414,
江戸川 (Edogawa),2021-11-11,19:01～20:00,0.0442,0.0387,0.0412,
江戸川 (Edogawa),2021-11-11,18:01～19:00,0.0439,0.0384,0.0411,
江戸川 (Edogawa),2021-11-11,17:01～18:00,0.0441,0.0383,0.0411,
江戸川 (Edogawa),2021-11-11,16:01～17:00,0.0450,0.0369,0.0408,
江戸川 (Edogawa),2021-11-11,15:01～16:00,0.0441,0.0376,0.0410,
江戸川 (Edogawa),2021-11-11,14:01～15:00,0.0445,0.0384,0.0415,
江戸川 (Edogawa),2021-11-11,13:01～14:00,0.0453,0.0389,0.0415,
江戸川 (Edogawa),2021-11-11,12:01～13:00,0.0447,0.0378,0.0414,
江戸川 (Edogawa),2021-11-11,11:01～12:00,0.0437,0.0383,0.0411,
江戸川 (Edogawa),2021-11-11,10:01～11:00,0.0447,0.0386,0.0417,
江戸川 (Edogawa),2021-11-11,09:01～10:00,0.0465,0.0383,0.0414,
江戸川 (Edogawa),2021-11-11,08:01～09:00,0.0447,0.0382,0.0410,
江戸川 (Edogawa),2021-11-11,07:01～08:00,0.0439,0.0382,0.0410,
江戸川 (Edogawa),2021-11-11,06:01～07:00,0.0429,0.0374,0.0405,
江戸川 (Edogawa),2021-11-11,05:01～06:00,0.0436,0.0373,0.0404,
江戸川 (Edogawa),2021-11-11,04:01～05:00,0.0430,0.0373,0.0407,
江戸川 (Edogawa),2021-11-11,03:01～04:00,0.0432,0.0368,0.0405,
江戸川 (Edogawa),2021-11-11,02:01～03:00,0.0437,0.0378,0.0404,
江戸川 (Edogawa),2021-11-11,01:01～02:00,0.0429,0.0378,0.0403,
江戸川 (Edogawa),2021-11-11,00:01～01:00,0.0440,0.0386,0.0409,
江戸川 (Edogawa),2021-11-10,23:01～24:00,0.0439,0.0383,0.0409,
江戸川 (Edogawa),2021-11-10,22:01～23:00,0.0438,0.0368,0.0405,
江戸川 (Edogawa),2021-11-10,21:01～22:00,0.0456,0.0381,0.0407,
江戸川 (Edogawa),2021-11-10,20:01～21:00,0.0436,0.0381,0.0407,
江戸川 (Edogawa),2021-11-10,19:01～20:00,0.0443,0.0377,0.0407,
江戸川 (Edogawa),2021-11-10,18:01～19:00,0.0433,0.0381,0.0409,
江戸川 (Edogawa),2021-11-10,17:01～18:00,0.0457,0.0383,0.0407,
江戸川 (Edogawa),2021-11-10,16:01～17:00,0.0435,0.0380,0.0406,
江戸川 (Edogawa),2021-11-10,15:01～16:00,0.0438,0.0387,0.0410,
江戸川 (Edogawa),2021-11-10,14:01～15:00,0.0446,0.0386,0.0411,
江戸川 (Edogawa),2021-11-10,13:01～14:00,0.0437,0.0369,0.0407,
江戸川 (Edogawa),2021-11-10,12:01～13:00,0.0440,0.0366,0.0405,
江戸川 (Edogawa),2021-11-10,11:01～12:00,0.0441,0.0376,0.0409,
江戸川 (Edogawa),2021-11-10,10:01～11:00,0.0433,0.0384,0.0412,
江戸川 (Edogawa),2021-11-10,09:01～10:00,0.0433,0.0380,0.0408,
江戸川 (Edogawa),2021-11-10,08:01～09:00,0.0437,0.0383,0.0408,
江戸川 (Edogawa),2021-11-10,07:01～08:00,0.0444,0.0372,0.0406,
江戸川 (Edogawa),2021-11-10,06:01～07:00,0.0440,0.0383,0.0411,
江戸川 (Edogawa),2021-11-10,05:01～06:00,0.0446,0.0386,0.0410,
江戸川 (Edogawa),2021-11-10,04:01～05:00,0.0435,0.0366,0.0405,
江戸川 (Edogawa),2021-11-10,03:01～04:00,0.0434,0.0371,0.0406,
江戸川 (Edogawa),2021-11-10,02:01～03:00,0.0439,0.0385,0.0412,
江戸川 (Edogawa),2021-11-10,01:01～02:00,0.0439,0.0380,0.0408,
江戸川 (Edogawa),2021-11-10,00:01～01:00,0.0431,0.0370,0.0409,
江戸川 (Edogawa),2021-11-09,23:01～24:00,0.0433,0.0375,0.0407,
江戸川 (Edogawa),2021-11-09,22:01～23:00,0.0444,0.0377,0.0404,
江戸川 (Edogawa),2021-11-09,21:01～22:00,0.0429,0.0376,0.0404,
江戸川 (Edogawa),2021-11-09,20:01～21:00,0.0437,0.0380,0.0407,
江戸川 (Edogawa),2021-11-09,19:01～20:00,0.0440,0.0365,0.0405,
江戸川 (Edogawa),2021-11-09,18:01～19:00,0.0426,0.0370,0.0402,
江戸川 (Edogawa),2021-11-09,17:01～18:00,0.0442,0.0370,0.0407,
江戸川 (Edogawa),2021-11-09,16:01～17:00,0.0451,0.0377,0.0412,
江戸川 (Edogawa),2021-11-09,15:01～16:00,0.0488,0.0387,0.0441,
江戸川 (Edogawa),2021-11-09,14:01～15:00,0.0542,0.0453,0.0497,
江戸川 (Edogawa),2021-11-09,13:01～14:00,0.0532,0.0453,0.0496,
江戸川 (Edogawa),2021-11-09,12:01～13:00,0.0525,0.0454,0.0493,
江戸川 (Edogawa),2021-11-09,11:01～12:00,0.0525,0.0437,0.0481,
江戸川 (Edogawa),2021-11-09,10:01～11:00,0.0507,0.0435,0.0472,
江戸川 (Edogawa),2021-11-09,09:01～10:00,0.0467,0.0397,0.0433,
江戸川 (Edogawa),2021-11-09,08:01～09:00,0.0444,0.0386,0.0415,
江戸川 (Edogawa),2021-11-09,07:01～08:00,0.0447,0.0384,0.0413,
江戸川 (Edogawa),2021-11-09,06:01～07:00,0.0457,0.0390,0.0422,
江戸川 (Edogawa),2021-11-09,05:01～06:00,0.0466,0.0406,0.0432,
江戸川 (Edogawa),2021-11-09,04:01～05:00,0.0469,0.0386,0.0418,
江戸川 (Edogawa),2021-11-09,03:01～04:00,0.0443,0.0385,0.0412,
江戸川 (Edogawa),2021-11-09,02:01～03:00,0.0438,0.0382,0.0409,
江戸川 (Edogawa),2021-11-09,01:01～02:00,0.0445,0.0378,0.0409,
江戸川 (Edogawa),2021-11-09,00:01～01:00,0.0450,0.0380,0.0410,
江戸川 (Edogawa),2021-11-08,23:01～24:00,0.0444,0.0377,0.0407,
江戸川 (Edogawa),2021-11-08,22:01～23:00,0.0436,0.0386,0.0413,
江戸川 (Edogawa),2021-11-08,21:01～22:00,0.0442,0.0377,0.0410,
江戸川 (Edogawa),2021-11-08,20:01～21:00,0.0436,0.0380,0.0407,
江戸川 (Edogawa),2021-11-08,19:01～20:00,0.0442,0.0375,0.0408,
江戸川 (Edogawa),2021-11-08,18:01～19:00,0.0434,0.0371,0.0406,
江戸川 (Edogawa),2021-11-08,17:01～18:00,0.0437,0.0364,0.0405,
江戸川 (Edogawa),2021-11-08,16:01～17:00,0.0435,0.0375,0.0406,
江戸川 (Edogawa),2021-11-08,15:01～16:00,0.0434,0.0359,0.0405,
江戸川 (Edogawa),2021-11-08,14:01～15:00,0.0439,0.0367,0.0409,
江戸川 (Edogawa),2021-11-08,13:01～14:00,0.0452,0.0382,0.0406,
江戸川 (Edogawa),2021-11-08,12:01～13:00,0.0460,0.0379,0.0414,
江戸川 (Edogawa),2021-11-08,11:01～12:00,0.0441,0.0375,0.0415,
江戸川 (Edogawa),2021-11-08,10:01～11:00,0.0441,0.0380,0.0415,
江戸川 (Edogawa),2021-11-08,09:01～10:00,0.0448,0.0385,0.0412,
江戸川 (Edogawa),2021-11-08,08:01～09:00,0.0447,0.0381,0.0413,
江戸川 (Edogawa),2021-11-08,07:01～08:00,0.0439,0.0380,0.0409,
江戸川 (Edogawa),2021-11-08,06:01～07:00,0.0439,0.0378,0.0409,
江戸川 (Edogawa),2021-11-08,05:01～06:00,0.0445,0.0389,0.0412,
江戸川 (Edogawa),2021-11-08,04:01～05:00,0.0435,0.0375,0.0409,
江戸川 (Edogawa),2021-11-08,03:01～04:00,0.0446,0.0383,0.0405,
江戸川 (Edogawa),2021-11-08,02:01～03:00,0.0442,0.0371,0.0409,
江戸川 (Edogawa),2021-11-08,01:01～02:00,0.0446,0.0393,0.0414,
江戸川 (Edogawa),2021-11-08,00:01～01:00,0.0460,0.0378,0.0424,
